Time,TemperatureF,DewpointF,PressureIn,WindDirection,WindDirectionDegrees,WindSpeedMPH,WindSpeedGustMPH,Humidity,HourlyPrecipIn,Conditions,Clouds,dailyrainin,SoftwareType,DateUTC
2013-01-20 00:00:00,42.6,41.5,30.18,North,-999,0.0,0.0,96,0.00,,,-99.99,WeatherLink 5.6,2013-01-20 06:00:00,
2013-01-20 00:30:00,42.6,41.5,30.17,North,-999,0.0,0.0,96,0.00,,,-99.99,WeatherLink 5.6,2013-01-20 06:30:00,
2013-01-20 01:00:00,42.5,41.4,30.16,North,-999,0.0,0.0,96,0.00,,,-99.99,WeatherLink 5.6,2013-01-20 07:00:00,
2013-01-20 01:30:00,42.1,41.0,30.16,North,-999,0.0,0.0,96,0.00,,,-99.99,WeatherLink 5.6,2013-01-20 07:30:00,
2013-01-20 02:00:00,41.3,40.2,30.17,North,-999,0.0,0.0,96,0.00,,,-99.99,WeatherLink 5.6,2013-01-20 08:00:00,
2013-01-20 02:30:00,41.1,40.0,30.15,North,-999,0.0,0.0,96,0.00,,,-99.99,WeatherLink 5.6,2013-01-20 08:30:00,
2013-01-20 03:00:00,40.8,39.7,30.15,North,-999,0.0,0.0,96,0.00,,,-99.99,WeatherLink 5.6,2013-01-20 09:00:00,
2013-01-20 03:30:00,40.2,39.2,30.15,North,-999,0.0,0.0,96,0.00,,,-99.99,WeatherLink 5.6,2013-01-20 09:30:00,
2013-01-20 04:00:00,39.8,38.8,30.15,North,-999,0.0,0.0,96,0.00,,,-99.99,WeatherLink 5.6,2013-01-20 10:00:00,
2013-01-20 04:30:00,39.1,38.1,30.15,North,-999,0.0,0.0,96,0.00,,,-99.99,WeatherLink 5.6,2013-01-20 10:30:00,
2013-01-20 05:00:00,38.5,37.5,30.15,North,-999,0.0,0.0,96,0.00,,,-99.99,WeatherLink 5.6,2013-01-20 11:00:00,
2013-01-20 05:30:00,38.0,37.0,30.15,North,-999,0.0,0.0,96,0.00,,,-99.99,WeatherLink 5.6,2013-01-20 11:30:00,
2013-01-20 06:00:00,37.6,36.8,30.15,North,-999,0.0,0.0,97,0.00,,,-99.99,WeatherLink 5.6,2013-01-20 12:00:00,
2013-01-20 06:30:00,37.6,36.8,30.16,North,-999,0.0,0.0,97,0.00,,,-99.99,WeatherLink 5.6,2013-01-20 12:30:00,
2013-01-20 07:00:00,37.3,36.5,30.16,North,-999,0.0,0.0,97,0.00,,,-99.99,WeatherLink 5.6,2013-01-20 13:00:00,
2013-01-20 07:30:00,37.9,37.1,30.16,North,-999,0.0,0.0,97,0.00,,,-99.99,WeatherLink 5.6,2013-01-20 13:30:00,
2013-01-20 08:00:00,42.6,42.1,30.17,North,-999,0.0,0.0,98,0.00,,,-99.99,WeatherLink 5.6,2013-01-20 14:00:00,
2013-01-20 08:30:00,47.1,46.6,30.17,North,-999,0.0,0.0,98,0.00,,,-99.99,WeatherLink 5.6,2013-01-20 14:30:00,
2013-01-20 09:00:00,51.6,50.8,30.18,North,-999,0.0,0.0,97,0.00,,,-99.99,WeatherLink 5.6,2013-01-20 15:00:00,
2013-01-20 09:30:00,55.1,50.4,30.18,ENE,67,1.0,6.0,84,0.00,,,-99.99,WeatherLink 5.6,2013-01-20 15:30:00,
2013-01-20 10:00:00,59.6,49.4,30.18,NE,45,2.0,7.0,69,0.00,,,-99.99,WeatherLink 5.6,2013-01-20 16:00:00,
2013-01-20 10:30:00,61.5,47.0,30.17,NE,45,2.0,7.0,59,0.00,,,-99.99,WeatherLink 5.6,2013-01-20 16:30:00,
2013-01-20 11:00:00,62.1,46.7,30.15,NE,45,3.0,9.0,57,0.00,,,-99.99,WeatherLink 5.6,2013-01-20 17:00:00,
2013-01-20 11:30:00,62.9,47.4,30.14,ENE,67,2.0,9.0,57,0.00,,,-99.99,WeatherLink 5.6,2013-01-20 17:30:00,
2013-01-20 12:00:00,64.7,46.7,30.12,WNW,292,1.0,9.0,52,0.00,,,-99.99,WeatherLink 5.6,2013-01-20 18:00:00,
2013-01-20 12:30:00,66.0,46.3,30.10,ENE,67,1.0,9.0,49,0.00,,,-99.99,WeatherLink 5.6,2013-01-20 18:30:00,
2013-01-20 13:00:00,63.5,49.8,30.08,SSW,202,2.0,10.0,61,0.00,,,-99.99,WeatherLink 5.6,2013-01-20 19:00:00,
2013-01-20 13:30:00,63.4,49.3,30.07,SSW,202,4.0,10.0,60,0.00,,,-99.99,WeatherLink 5.6,2013-01-20 19:30:00,
2013-01-20 14:00:00,63.9,50.2,30.06,SSW,202,4.0,11.0,61,0.00,,,-99.99,WeatherLink 5.6,2013-01-20 20:00:00,
2013-01-20 14:30:00,64.0,48.5,30.05,SSW,202,3.0,9.0,57,0.00,,,-99.99,WeatherLink 5.6,2013-01-20 20:30:00,
2013-01-20 15:00:00,63.7,49.5,30.05,SSW,202,4.0,9.0,60,0.00,,,-99.99,WeatherLink 5.6,2013-01-20 21:00:00,
2013-01-20 15:30:00,63.4,49.3,30.04,South,180,4.0,11.0,60,0.00,,,-99.99,WeatherLink 5.6,2013-01-20 21:30:00,
2013-01-20 16:00:00,61.6,50.5,30.04,SSW,202,4.0,10.0,67,0.00,,,-99.99,WeatherLink 5.6,2013-01-20 22:00:00,
2013-01-20 16:30:00,60.9,50.7,30.04,SSW,202,3.0,7.0,69,0.00,,,-99.99,WeatherLink 5.6,2013-01-20 22:30:00,
2013-01-20 17:00:00,58.9,49.9,30.05,SSW,202,1.0,6.0,72,0.00,,,-99.99,WeatherLink 5.6,2013-01-20 23:00:00,
2013-01-20 17:30:00,57.5,50.7,30.05,SSW,202,0.0,3.0,78,0.00,,,-99.99,WeatherLink 5.6,2013-01-20 23:30:00,
2013-01-20 18:00:00,56.2,50.4,30.06,North,-999,0.0,0.0,81,0.00,,,-99.99,WeatherLink 5.6,2013-01-21 00:00:00,
2013-01-20 18:30:00,53.9,49.5,30.06,North,-999,0.0,0.0,85,0.00,,,-99.99,WeatherLink 5.6,2013-01-21 00:30:00,
2013-01-20 19:00:00,52.5,49.0,30.06,North,-999,0.0,0.0,88,0.00,,,-99.99,WeatherLink 5.6,2013-01-21 01:00:00,
2013-01-20 19:30:00,50.8,48.0,30.07,North,-999,0.0,0.0,90,0.00,,,-99.99,WeatherLink 5.6,2013-01-21 01:30:00,
2013-01-20 20:00:00,49.9,47.7,30.07,North,-999,0.0,0.0,92,0.00,,,-99.99,WeatherLink 5.6,2013-01-21 02:00:00,
2013-01-20 20:30:00,49.2,47.3,30.08,North,-999,0.0,0.0,93,0.00,,,-99.99,WeatherLink 5.6,2013-01-21 02:30:00,
2013-01-20 21:00:00,48.0,46.1,30.08,North,-999,0.0,0.0,93,0.00,,,-99.99,WeatherLink 5.6,2013-01-21 03:00:00,
2013-01-20 21:30:00,47.6,46.0,30.09,North,-999,0.0,0.0,94,0.00,,,-99.99,WeatherLink 5.6,2013-01-21 03:30:00,
2013-01-20 22:00:00,47.3,45.9,30.09,North,-999,0.0,0.0,95,0.00,,,-99.99,WeatherLink 5.6,2013-01-21 04:00:00,
2013-01-20 22:30:00,46.2,44.8,30.09,North,-999,0.0,0.0,95,0.00,,,-99.99,WeatherLink 5.6,2013-01-21 04:30:00,
2013-01-20 23:00:00,45.5,44.2,30.09,North,-999,0.0,0.0,95,0.00,,,-99.99,WeatherLink 5.6,2013-01-21 05:00:00,
2013-01-20 23:30:00,45.2,43.9,30.08,North,-999,0.0,0.0,95,0.00,,,-99.99,WeatherLink 5.6,2013-01-21 05:30:00,